owner,sensor,date,latitude,longitude,vertical_datum,wind_speed,wind_to_direction,wind_speed_of_gust,qcFlag 
TCOON,ioos:station:TCOON:057:1,2010-04-01T00:00:00Z,28.4460,-96.3961,0.0,6.8,127.0,7.7,'11111222,11111222,11111222' 
TCOON,ioos:station:TCOON:057:1,2010-04-01T01:00:00Z,28.4460,-96.3961,0.0,5.2,131.0,6.2,'11111222,11111222,11111222' 
TCOON,ioos:station:TCOON:057:1,2010-04-01T03:00:00Z,28.4460,-96.3961,0.0,6.2,134.0,7.2,'11111222,11111222,11111222' 
TCOON,ioos:station:TCOON:057:1,2010-04-01T04:00:00Z,28.4460,-96.3961,0.0,5.9,142.0,6.9,'11111222,11111222,11111222' 
TCOON,ioos:station:TCOON:057:1,2010-04-01T05:00:00Z,28.4460,-96.3961,0.0,6.9,144.0,9.1,'11111222,11111222,11111222' 
TCOON,ioos:station:TCOON:057:1,2010-04-01T06:00:00Z,28.4460,-96.3961,0.0,7.2,155.0,8.3,'11111222,11111222,11111222' 
TCOON,ioos:station:TCOON:057:1,2010-04-01T07:00:00Z,28.4460,-96.3961,0.0,7.4,152.0,8.5,'11111222,11111222,11111222' 
TCOON,ioos:station:TCOON:057:1,2010-04-01T08:00:00Z,28.4460,-96.3961,0.0,6.9,151.0,7.8,'11111222,11111222,11111222' 
TCOON,ioos:station:TCOON:057:1,2010-04-01T09:00:00Z,28.4460,-96.3961,0.0,7.4,163.0,8.8,'11111222,11111222,11111222' 
TCOON,ioos:station:TCOON:057:1,2010-04-01T10:00:00Z,28.4460,-96.3961,0.0,7.2,156.0,7.8,'11111222,11111222,11111222' 
TCOON,ioos:station:TCOON:057:1,2010-04-01T11:00:00Z,28.4460,-96.3961,0.0,7.6,144.0,8.6,'11111222,11111222,11111222' 
TCOON,ioos:station:TCOON:057:1,2010-04-01T12:00:00Z,28.4460,-96.3961,0.0,7.2,141.0,8.4,'11111222,11111222,11111222' 
TCOON,ioos:station:TCOON:057:1,2010-04-01T13:00:00Z,28.4460,-96.3961,0.0,7.2,134.0,8.7,'11111222,11111222,11111222' 
TCOON,ioos:station:TCOON:057:1,2010-04-01T14:00:00Z,28.4460,-96.3961,0.0,7.7,132.0,9.0,'11111222,11111222,11111222' 
TCOON,ioos:station:TCOON:057:1,2010-04-01T15:00:00Z,28.4460,-96.3961,0.0,6.9,135.0,8.3,'11111222,11111222,11111222' 
TCOON,ioos:station:TCOON:057:1,2010-04-01T16:00:00Z,28.4460,-96.3961,0.0,7.1,137.0,8.7,'11111222,11111222,11111222' 
TCOON,ioos:station:TCOON:057:1,2010-04-01T17:00:00Z,28.4460,-96.3961,0.0,6.1,133.0,7.0,'11111222,11111222,11111222' 
TCOON,ioos:station:TCOON:057:1,2010-04-01T18:00:00Z,28.4460,-96.3961,0.0,6.7,136.0,7.8,'11111222,11111222,11111222' 
TCOON,ioos:station:TCOON:057:1,2010-04-01T19:00:00Z,28.4460,-96.3961,0.0,7.1,128.0,8.4,'11111222,11111222,11111222' 
TCOON,ioos:station:TCOON:057:1,2010-04-01T20:00:00Z,28.4460,-96.3961,0.0,6.5,121.0,7.7,'11111222,11111222,11111222' 
TCOON,ioos:station:TCOON:057:1,2010-04-01T21:00:00Z,28.4460,-96.3961,0.0,7.2,121.0,9.0,'11111222,11111222,11111222' 
TCOON,ioos:station:TCOON:057:1,2010-04-01T22:00:00Z,28.4460,-96.3961,0.0,8.3,113.0,9.9,'11111222,11111222,11111222' 
TCOON,ioos:station:TCOON:057:1,2010-04-01T23:00:00Z,28.4460,-96.3961,0.0,9.0,115.0,10.6,'11111222,11111222,11111222' 
TCOON,ioos:station:TCOON:057:1,2010-04-02T00:00:00Z,28.4460,-96.3961,0.0,8.6,116.0,10.2,'11111222,11111222,11111222' 
TCOON,ioos:station:TCOON:057:1,2010-04-02T01:00:00Z,28.4460,-96.3961,0.0,9.2,116.0,10.3,'11111222,11111222,11111222' 
TCOON,ioos:station:TCOON:057:1,2010-04-02T02:00:00Z,28.4460,-96.3961,0.0,9.2,117.0,10.4,'11111222,11111222,11111222' 
TCOON,ioos:station:TCOON:057:1,2010-04-02T03:00:00Z,28.4460,-96.3961,0.0,10.2,118.0,12.1,'11111222,11111222,11111222' 
TCOON,ioos:station:TCOON:057:1,2010-04-02T04:00:00Z,28.4460,-96.3961,0.0,8.9,129.0,10.0,'11111222,11111222,11111222' 
TCOON,ioos:station:TCOON:057:1,2010-04-02T05:00:00Z,28.4460,-96.3961,0.0,11.5,138.0,13.9,'11111222,11111222,11111222' 
TCOON,ioos:station:TCOON:057:1,2010-04-02T06:00:00Z,28.4460,-96.3961,0.0,9.9,146.0,11.6,'11111222,11111222,11111222' 
TCOON,ioos:station:TCOON:057:1,2010-04-02T07:00:00Z,28.4460,-96.3961,0.0,7.9,156.0,9.3,'11111222,11111222,11111222' 
TCOON,ioos:station:TCOON:057:1,2010-04-02T08:00:00Z,28.4460,-96.3961,0.0,6.7,147.0,7.4,'11111222,11111222,11111222' 
TCOON,ioos:station:TCOON:057:1,2010-04-02T09:00:00Z,28.4460,-96.3961,0.0,7.9,142.0,9.4,'11111222,11111222,11111222' 
TCOON,ioos:station:TCOON:057:1,2010-04-02T12:00:00Z,28.4460,-96.3961,0.0,5.8,129.0,6.7,'11111222,11111222,11111222' 
TCOON,ioos:station:TCOON:057:1,2010-04-02T13:00:00Z,28.4460,-96.3961,0.0,5.4,125.0,6.9,'11111222,11111222,11111222' 
TCOON,ioos:station:TCOON:057:1,2010-04-02T15:00:00Z,28.4460,-96.3961,0.0,8.3,131.0,9.9,'11111222,11111222,11111222' 
TCOON,ioos:station:TCOON:057:1,2010-04-02T16:00:00Z,28.4460,-96.3961,0.0,6.6,150.0,8.0,'11111222,11111222,11111222' 
TCOON,ioos:station:TCOON:057:1,2010-04-02T17:00:00Z,28.4460,-96.3961,0.0,4.6,146.0,5.6,'11111222,11111222,11111222' 
TCOON,ioos:station:TCOON:057:1,2010-04-02T19:00:00Z,28.4460,-96.3961,0.0,3.2,158.0,4.0,'11111222,11111222,11111222' 
TCOON,ioos:station:TCOON:057:1,2010-04-02T20:00:00Z,28.4460,-96.3961,0.0,3.1,117.0,3.5,'11111222,11111222,11111222' 
TCOON,ioos:station:TCOON:057:1,2010-04-02T21:00:00Z,28.4460,-96.3961,0.0,4.6,109.0,5.1,'11111222,11111222,11111222' 
TCOON,ioos:station:TCOON:057:1,2010-04-02T22:00:00Z,28.4460,-96.3961,0.0,3.8,115.0,4.2,'11111222,11111222,11111222' 
TCOON,ioos:station:TCOON:057:1,2010-04-02T23:00:00Z,28.4460,-96.3961,0.0,3.7,107.0,4.2,'11111222,11111222,11111222' 
TCOON,ioos:station:TCOON:057:1,2010-04-03T00:00:00Z,28.4460,-96.3961,0.0,2.5,116.0,2.7,'11111222,11111222,11111222' 
TCOON,ioos:station:TCOON:057:1,2010-04-03T01:00:00Z,28.4460,-96.3961,0.0,2.3,94.0,2.6,'11111222,11111222,11111222' 
TCOON,ioos:station:TCOON:057:1,2010-04-03T03:00:00Z,28.4460,-96.3961,0.0,4.5,148.0,5.5,'11111222,11111222,11111222' 
TCOON,ioos:station:TCOON:057:1,2010-04-03T04:00:00Z,28.4460,-96.3961,0.0,2.7,141.0,3.1,'11111222,11111222,11111222' 
TCOON,ioos:station:TCOON:057:1,2010-04-03T05:00:00Z,28.4460,-96.3961,0.0,3.1,167.0,3.5,'11111222,11111222,11111222' 
TCOON,ioos:station:TCOON:057:1,2010-04-03T06:00:00Z,28.4460,-96.3961,0.0,1.9,190.0,2.1,'11111222,11111222,11111222' 
TCOON,ioos:station:TCOON:057:1,2010-04-03T07:00:00Z,28.4460,-96.3961,0.0,3.9,183.0,4.2,'11111222,11111222,11111222' 
TCOON,ioos:station:TCOON:057:1,2010-04-03T08:00:00Z,28.4460,-96.3961,0.0,1.5,164.0,1.8,'11111222,11111222,11111222' 
TCOON,ioos:station:TCOON:057:1,2010-04-03T09:00:00Z,28.4460,-96.3961,0.0,0.0,118.0,99.0,'11111222,11111222,11144222' 
TCOON,ioos:station:TCOON:057:1,2010-04-03T10:00:00Z,28.4460,-96.3961,0.0,0.0,119.0,99.0,'11111222,11111222,11144222' 
TCOON,ioos:station:TCOON:057:1,2010-04-03T11:00:00Z,28.4460,-96.3961,0.0,0.0,79.0,99.0,'11111222,11111222,11144222' 
TCOON,ioos:station:TCOON:057:1,2010-04-03T12:00:00Z,28.4460,-96.3961,0.0,1.8,18.0,2.4,'11111222,11111222,11111222' 
TCOON,ioos:station:TCOON:057:1,2010-04-03T13:00:00Z,28.4460,-96.3961,0.0,2.2,41.0,2.7,'11111222,11111222,11111222' 
TCOON,ioos:station:TCOON:057:1,2010-04-03T14:00:00Z,28.4460,-96.3961,0.0,3.2,51.0,3.7,'11111222,11111222,11111222' 
TCOON,ioos:station:TCOON:057:1,2010-04-03T15:00:00Z,28.4460,-96.3961,0.0,2.2,49.0,2.5,'11111222,11111222,11111222' 
TCOON,ioos:station:TCOON:057:1,2010-04-03T16:00:00Z,28.4460,-96.3961,0.0,3.1,86.0,3.5,'11111222,11111222,11111222' 
TCOON,ioos:station:TCOON:057:1,2010-04-03T17:00:00Z,28.4460,-96.3961,0.0,2.1,67.0,2.5,'11111222,11111222,11111222' 
TCOON,ioos:station:TCOON:057:1,2010-04-03T18:00:00Z,28.4460,-96.3961,0.0,4.2,68.0,4.6,'11111222,11111222,11111222' 
TCOON,ioos:station:TCOON:057:1,2010-04-03T19:00:00Z,28.4460,-96.3961,0.0,1.7,72.0,2.4,'11111222,11111222,11111222' 
TCOON,ioos:station:TCOON:057:1,2010-04-03T20:00:00Z,28.4460,-96.3961,0.0,4.8,95.0,5.2,'11111222,11111222,11111222' 
TCOON,ioos:station:TCOON:057:1,2010-04-03T21:00:00Z,28.4460,-96.3961,0.0,3.2,66.0,3.7,'11111222,11111222,11111222' 
TCOON,ioos:station:TCOON:057:1,2010-04-03T22:00:00Z,28.4460,-96.3961,0.0,4.6,85.0,5.3,'11111222,11111222,11111222' 
TCOON,ioos:station:TCOON:057:1,2010-04-03T23:00:00Z,28.4460,-96.3961,0.0,7.0,100.0,7.7,'11111222,11111222,11111222' 
TCOON,ioos:station:TCOON:057:1,2010-04-04T00:00:00Z,28.4460,-96.3961,0.0,8.5,106.0,9.8,'11111222,11111222,11111222' 
TCOON,ioos:station:TCOON:057:1,2010-04-04T01:00:00Z,28.4460,-96.3961,0.0,7.4,111.0,8.4,'11111222,11111222,11111222' 
TCOON,ioos:station:TCOON:057:1,2010-04-04T02:00:00Z,28.4460,-96.3961,0.0,10.1,115.0,11.5,'11111222,11111222,11111222' 
TCOON,ioos:station:TCOON:057:1,2010-04-04T03:00:00Z,28.4460,-96.3961,0.0,8.1,114.0,8.9,'11111222,11111222,11111222' 
TCOON,ioos:station:TCOON:057:1,2010-04-04T04:00:00Z,28.4460,-96.3961,0.0,6.5,111.0,7.2,'11111222,11111222,11111222' 
TCOON,ioos:station:TCOON:057:1,2010-04-04T05:00:00Z,28.4460,-96.3961,0.0,8.3,125.0,9.6,'11111222,11111222,11111222' 
TCOON,ioos:station:TCOON:057:1,2010-04-04T06:00:00Z,28.4460,-96.3961,0.0,6.7,120.0,7.6,'11111222,11111222,11111222' 
TCOON,ioos:station:TCOON:057:1,2010-04-04T07:00:00Z,28.4460,-96.3961,0.0,7.6,133.0,9.0,'11111222,11111222,11111222' 
TCOON,ioos:station:TCOON:057:1,2010-04-04T08:00:00Z,28.4460,-96.3961,0.0,6.4,148.0,7.3,'11111222,11111222,11111222' 
TCOON,ioos:station:TCOON:057:1,2010-04-04T09:00:00Z,28.4460,-96.3961,0.0,4.7,165.0,5.3,'11111222,11111222,11111222' 
TCOON,ioos:station:TCOON:057:1,2010-04-04T10:00:00Z,28.4460,-96.3961,0.0,4.2,160.0,4.8,'11111222,11111222,11111222' 
TCOON,ioos:station:TCOON:057:1,2010-04-04T11:00:00Z,28.4460,-96.3961,0.0,5.2,144.0,5.8,'11111222,11111222,11111222' 
TCOON,ioos:station:TCOON:057:1,2010-04-04T12:00:00Z,28.4460,-96.3961,0.0,4.7,127.0,5.4,'11111222,11111222,11111222' 
TCOON,ioos:station:TCOON:057:1,2010-04-04T13:00:00Z,28.4460,-96.3961,0.0,5.8,123.0,6.8,'11111222,11111222,11111222' 
TCOON,ioos:station:TCOON:057:1,2010-04-04T14:00:00Z,28.4460,-96.3961,0.0,5.6,137.0,6.3,'11111222,11111222,11111222' 
TCOON,ioos:station:TCOON:057:1,2010-04-04T15:00:00Z,28.4460,-96.3961,0.0,4.7,127.0,5.7,'11111222,11111222,11111222' 
TCOON,ioos:station:TCOON:057:1,2010-04-04T16:00:00Z,28.4460,-96.3961,0.0,5.7,124.0,6.5,'11111222,11111222,11111222' 
TCOON,ioos:station:TCOON:057:1,2010-04-04T17:00:00Z,28.4460,-96.3961,0.0,6.5,127.0,7.6,'11111222,11111222,11111222' 
TCOON,ioos:station:TCOON:057:1,2010-04-04T18:00:00Z,28.4460,-96.3961,0.0,5.6,116.0,6.6,'11111222,11111222,11111222' 
TCOON,ioos:station:TCOON:057:1,2010-04-04T19:00:00Z,28.4460,-96.3961,0.0,7.0,125.0,8.5,'11111222,11111222,11111222' 
TCOON,ioos:station:TCOON:057:1,2010-04-04T20:00:00Z,28.4460,-96.3961,0.0,8.2,119.0,9.3,'11111222,11111222,11111222' 
TCOON,ioos:station:TCOON:057:1,2010-04-04T21:00:00Z,28.4460,-96.3961,0.0,8.4,113.0,9.5,'11111222,11111222,11111222' 
TCOON,ioos:station:TCOON:057:1,2010-04-04T22:00:00Z,28.4460,-96.3961,0.0,9.2,111.0,10.6,'11111222,11111222,11111222' 
TCOON,ioos:station:TCOON:057:1,2010-04-04T23:00:00Z,28.4460,-96.3961,0.0,8.8,108.0,10.3,'11111222,11111222,11111222' 
TCOON,ioos:station:TCOON:057:1,2010-04-05T00:00:00Z,28.4460,-96.3961,0.0,8.8,110.0,10.1,'11111222,11111222,11111222' 
TCOON,ioos:station:TCOON:057:1,2010-04-05T01:00:00Z,28.4460,-96.3961,0.0,8.0,106.0,9.4,'11111222,11111222,11111222' 
TCOON,ioos:station:TCOON:057:1,2010-04-05T02:00:00Z,28.4460,-96.3961,0.0,9.2,108.0,10.8,'11111222,11111222,11111222' 
TCOON,ioos:station:TCOON:057:1,2010-04-05T03:00:00Z,28.4460,-96.3961,0.0,8.8,110.0,10.8,'11111222,11111222,11111222' 
TCOON,ioos:station:TCOON:057:1,2010-04-05T04:00:00Z,28.4460,-96.3961,0.0,8.9,113.0,10.5,'11111222,11111222,11111222' 
TCOON,ioos:station:TCOON:057:1,2010-04-05T05:00:00Z,28.4460,-96.3961,0.0,7.7,117.0,9.2,'11111222,11111222,11111222' 
TCOON,ioos:station:TCOON:057:1,2010-04-05T06:00:00Z,28.4460,-96.3961,0.0,7.0,118.0,8.0,'11111222,11111222,11111222' 
TCOON,ioos:station:TCOON:057:1,2010-04-05T07:00:00Z,28.4460,-96.3961,0.0,6.2,126.0,7.0,'11111222,11111222,11111222' 
TCOON,ioos:station:TCOON:057:1,2010-04-05T08:00:00Z,28.4460,-96.3961,0.0,5.4,121.0,5.9,'11111222,11111222,11111222' 
TCOON,ioos:station:TCOON:057:1,2010-04-05T09:00:00Z,28.4460,-96.3961,0.0,3.8,129.0,4.2,'11111222,11111222,11111222' 
TCOON,ioos:station:TCOON:057:1,2010-04-05T10:00:00Z,28.4460,-96.3961,0.0,2.3,108.0,2.9,'11111222,11111222,11111222' 
TCOON,ioos:station:TCOON:057:1,2010-04-05T11:00:00Z,28.4460,-96.3961,0.0,4.2,112.0,4.7,'11111222,11111222,11111222' 
TCOON,ioos:station:TCOON:057:1,2010-04-05T12:00:00Z,28.4460,-96.3961,0.0,5.9,115.0,6.9,'11111222,11111222,11111222' 
TCOON,ioos:station:TCOON:057:1,2010-04-05T13:00:00Z,28.4460,-96.3961,0.0,8.3,143.0,10.2,'11111222,11111222,11111222' 
TCOON,ioos:station:TCOON:057:1,2010-04-05T14:00:00Z,28.4460,-96.3961,0.0,6.2,148.0,7.2,'11111222,11111222,11111222' 
TCOON,ioos:station:TCOON:057:1,2010-04-05T15:00:00Z,28.4460,-96.3961,0.0,4.7,133.0,5.3,'11111222,11111222,11111222' 
TCOON,ioos:station:TCOON:057:1,2010-04-05T16:00:00Z,28.4460,-96.3961,0.0,5.9,115.0,6.4,'11111222,11111222,11111222' 
TCOON,ioos:station:TCOON:057:1,2010-04-05T17:00:00Z,28.4460,-96.3961,0.0,5.3,118.0,5.9,'11111222,11111222,11111222' 
TCOON,ioos:station:TCOON:057:1,2010-04-05T18:00:00Z,28.4460,-96.3961,0.0,6.8,122.0,7.9,'11111222,11111222,11111222' 
TCOON,ioos:station:TCOON:057:1,2010-04-05T19:00:00Z,28.4460,-96.3961,0.0,6.9,125.0,8.1,'11111222,11111222,11111222' 
TCOON,ioos:station:TCOON:057:1,2010-04-05T20:00:00Z,28.4460,-96.3961,0.0,7.6,111.0,8.9,'11111222,11111222,11111222' 
TCOON,ioos:station:TCOON:057:1,2010-04-05T23:00:00Z,28.4460,-96.3961,0.0,9.0,110.0,10.3,'11111222,11111222,11111222' 
TCOON,ioos:station:TCOON:057:1,2010-04-06T00:00:00Z,28.4460,-96.3961,0.0,9.0,107.0,10.1,'11111222,11111222,11111222' 
TCOON,ioos:station:TCOON:057:1,2010-04-06T01:00:00Z,28.4460,-96.3961,0.0,9.3,112.0,10.5,'11111222,11111222,11111222' 
TCOON,ioos:station:TCOON:057:1,2010-04-06T02:00:00Z,28.4460,-96.3961,0.0,10.1,118.0,11.0,'11111222,11111222,11111222' 
TCOON,ioos:station:TCOON:057:1,2010-04-06T03:00:00Z,28.4460,-96.3961,0.0,9.5,117.0,10.8,'11111222,11111222,11111222' 
TCOON,ioos:station:TCOON:057:1,2010-04-06T04:00:00Z,28.4460,-96.3961,0.0,9.2,125.0,10.4,'11111222,11111222,11111222' 
TCOON,ioos:station:TCOON:057:1,2010-04-06T05:00:00Z,28.4460,-96.3961,0.0,9.0,123.0,10.2,'11111222,11111222,11111222' 
TCOON,ioos:station:TCOON:057:1,2010-04-06T06:00:00Z,28.4460,-96.3961,0.0,9.1,125.0,10.6,'11111222,11111222,11111222' 
TCOON,ioos:station:TCOON:057:1,2010-04-06T07:00:00Z,28.4460,-96.3961,0.0,8.5,131.0,9.7,'11111222,11111222,11111222' 
TCOON,ioos:station:TCOON:057:1,2010-04-06T08:00:00Z,28.4460,-96.3961,0.0,8.7,144.0,10.4,'11111222,11111222,11111222' 
TCOON,ioos:station:TCOON:057:1,2010-04-06T09:00:00Z,28.4460,-96.3961,0.0,10.0,145.0,11.8,'11111222,11111222,11111222' 
TCOON,ioos:station:TCOON:057:1,2010-04-06T10:00:00Z,28.4460,-96.3961,0.0,7.6,152.0,8.8,'11111222,11111222,11111222' 
TCOON,ioos:station:TCOON:057:1,2010-04-06T11:00:00Z,28.4460,-96.3961,0.0,10.6,141.0,13.0,'11111222,11111222,11111222' 
TCOON,ioos:station:TCOON:057:1,2010-04-06T12:00:00Z,28.4460,-96.3961,0.0,9.1,157.0,10.6,'11111222,11111222,11111222' 
TCOON,ioos:station:TCOON:057:1,2010-04-06T13:00:00Z,28.4460,-96.3961,0.0,8.7,157.0,10.0,'11111222,11111222,11111222' 
TCOON,ioos:station:TCOON:057:1,2010-04-06T14:00:00Z,28.4460,-96.3961,0.0,8.8,157.0,10.0,'11111222,11111222,11111222' 
TCOON,ioos:station:TCOON:057:1,2010-04-06T15:00:00Z,28.4460,-96.3961,0.0,8.3,155.0,9.7,'11111222,11111222,11111222' 
TCOON,ioos:station:TCOON:057:1,2010-04-06T16:00:00Z,28.4460,-96.3961,0.0,7.7,164.0,9.1,'11111222,11111222,11111222' 
TCOON,ioos:station:TCOON:057:1,2010-04-06T17:00:00Z,28.4460,-96.3961,0.0,7.7,168.0,9.0,'11111222,11111222,11111222' 
TCOON,ioos:station:TCOON:057:1,2010-04-06T18:00:00Z,28.4460,-96.3961,0.0,7.2,170.0,8.6,'11111222,11111222,11111222' 
TCOON,ioos:station:TCOON:057:1,2010-04-06T19:00:00Z,28.4460,-96.3961,0.0,8.3,167.0,9.9,'11111222,11111222,11111222' 
TCOON,ioos:station:TCOON:057:1,2010-04-06T20:00:00Z,28.4460,-96.3961,0.0,9.5,169.0,10.9,'11111222,11111222,11111222' 
TCOON,ioos:station:TCOON:057:1,2010-04-06T21:00:00Z,28.4460,-96.3961,0.0,7.7,149.0,8.8,'11111222,11111222,11111222' 
TCOON,ioos:station:TCOON:057:1,2010-04-06T22:00:00Z,28.4460,-96.3961,0.0,6.8,149.0,7.8,'11111222,11111222,11111222' 
TCOON,ioos:station:TCOON:057:1,2010-04-06T23:00:00Z,28.4460,-96.3961,0.0,7.8,135.0,9.5,'11111222,11111222,11111222' 
TCOON,ioos:station:TCOON:057:1,2010-04-07T00:00:00Z,28.4460,-96.3961,0.0,6.9,130.0,8.0,'11111222,11111222,11111222' 
TCOON,ioos:station:TCOON:057:1,2010-04-07T01:00:00Z,28.4460,-96.3961,0.0,6.6,132.0,7.6,'11111222,11111222,11111222' 
TCOON,ioos:station:TCOON:057:1,2010-04-07T02:00:00Z,28.4460,-96.3961,0.0,7.6,140.0,9.0,'11111222,11111222,11111222' 
TCOON,ioos:station:TCOON:057:1,2010-04-07T03:00:00Z,28.4460,-96.3961,0.0,7.0,148.0,8.4,'11111222,11111222,11111222' 
TCOON,ioos:station:TCOON:057:1,2010-04-07T04:00:00Z,28.4460,-96.3961,0.0,8.1,138.0,9.6,'11111222,11111222,11111222' 
TCOON,ioos:station:TCOON:057:1,2010-04-07T05:00:00Z,28.4460,-96.3961,0.0,8.3,141.0,9.7,'11111222,11111222,11111222' 
TCOON,ioos:station:TCOON:057:1,2010-04-07T06:00:00Z,28.4460,-96.3961,0.0,8.0,146.0,8.9,'11111222,11111222,11111222' 
TCOON,ioos:station:TCOON:057:1,2010-04-07T07:00:00Z,28.4460,-96.3961,0.0,8.3,167.0,9.8,'11111222,11111222,11111222' 
TCOON,ioos:station:TCOON:057:1,2010-04-07T08:00:00Z,28.4460,-96.3961,0.0,9.2,174.0,10.8,'11111222,11111222,11111222' 
TCOON,ioos:station:TCOON:057:1,2010-04-07T09:00:00Z,28.4460,-96.3961,0.0,6.8,158.0,8.0,'11111222,11111222,11111222' 
TCOON,ioos:station:TCOON:057:1,2010-04-07T10:00:00Z,28.4460,-96.3961,0.0,8.6,157.0,10.4,'11111222,11111222,11111222' 
TCOON,ioos:station:TCOON:057:1,2010-04-07T11:00:00Z,28.4460,-96.3961,0.0,6.9,143.0,7.9,'11111222,11111222,11111222' 
TCOON,ioos:station:TCOON:057:1,2010-04-07T12:00:00Z,28.4460,-96.3961,0.0,4.4,147.0,5.1,'11111222,11111222,11111222' 
TCOON,ioos:station:TCOON:057:1,2010-04-07T13:00:00Z,28.4460,-96.3961,0.0,3.1,121.0,3.7,'11111222,11111222,11111222' 
TCOON,ioos:station:TCOON:057:1,2010-04-07T14:00:00Z,28.4460,-96.3961,0.0,3.7,109.0,4.4,'11111222,11111222,11111222' 
TCOON,ioos:station:TCOON:057:1,2010-04-07T15:00:00Z,28.4460,-96.3961,0.0,4.5,118.0,5.2,'11111222,11111222,11111222' 
TCOON,ioos:station:TCOON:057:1,2010-04-07T16:00:00Z,28.4460,-96.3961,0.0,6.8,137.0,8.0,'11111222,11111222,11111222' 
TCOON,ioos:station:TCOON:057:1,2010-04-07T17:00:00Z,28.4460,-96.3961,0.0,5.8,129.0,6.5,'11111222,11111222,11111222' 
TCOON,ioos:station:TCOON:057:1,2010-04-07T18:00:00Z,28.4460,-96.3961,0.0,4.0,129.0,4.6,'11111222,11111222,11111222' 
TCOON,ioos:station:TCOON:057:1,2010-04-07T19:00:00Z,28.4460,-96.3961,0.0,5.0,134.0,5.8,'11111222,11111222,11111222' 
TCOON,ioos:station:TCOON:057:1,2010-04-07T20:00:00Z,28.4460,-96.3961,0.0,5.2,126.0,6.1,'11111222,11111222,11111222' 
TCOON,ioos:station:TCOON:057:1,2010-04-07T21:00:00Z,28.4460,-96.3961,0.0,3.7,118.0,4.4,'11111222,11111222,11111222' 
TCOON,ioos:station:TCOON:057:1,2010-04-07T22:00:00Z,28.4460,-96.3961,0.0,2.8,131.0,3.2,'11111222,11111222,11111222' 
TCOON,ioos:station:TCOON:057:1,2010-04-07T23:00:00Z,28.4460,-96.3961,0.0,2.6,86.0,2.9,'11111222,11111222,11111222' 
TCOON,ioos:station:TCOON:057:1,2010-04-08T00:00:00Z,28.4460,-96.3961,0.0,1.7,81.0,2.1,'11111222,11111222,11111222' 
TCOON,ioos:station:TCOON:057:1,2010-04-08T01:00:00Z,28.4460,-96.3961,0.0,0.6,40.0,1.8,'11111222,11111222,11111222' 
TCOON,ioos:station:TCOON:057:1,2010-04-08T02:00:00Z,28.4460,-96.3961,0.0,13.9,3.0,16.1,'11111222,11111222,11111222' 
TCOON,ioos:station:TCOON:057:1,2010-04-08T03:00:00Z,28.4460,-96.3961,0.0,11.1,10.0,12.5,'11111222,11111222,11111222' 
TCOON,ioos:station:TCOON:057:1,2010-04-08T04:00:00Z,28.4460,-96.3961,0.0,8.9,21.0,10.0,'11111222,11111222,11111222' 
TCOON,ioos:station:TCOON:057:1,2010-04-08T05:00:00Z,28.4460,-96.3961,0.0,9.6,21.0,10.5,'11111222,11111222,11111222' 
TCOON,ioos:station:TCOON:057:1,2010-04-08T06:00:00Z,28.4460,-96.3961,0.0,15.6,5.0,18.2,'11111222,11111222,11111222' 
TCOON,ioos:station:TCOON:057:1,2010-04-08T07:00:00Z,28.4460,-96.3961,0.0,16.1,2.0,19.3,'11111222,11111222,11111222' 
TCOON,ioos:station:TCOON:057:1,2010-04-08T08:00:00Z,28.4460,-96.3961,0.0,13.8,4.0,16.0,'11111222,11111222,11111222' 
TCOON,ioos:station:TCOON:057:1,2010-04-08T09:00:00Z,28.4460,-96.3961,0.0,11.7,7.0,14.5,'11111222,11111222,11111222' 
TCOON,ioos:station:TCOON:057:1,2010-04-08T10:00:00Z,28.4460,-96.3961,0.0,12.7,1.0,14.5,'11111222,11111222,11111222' 
TCOON,ioos:station:TCOON:057:1,2010-04-08T11:00:00Z,28.4460,-96.3961,0.0,11.1,350.0,13.8,'11111222,11111222,11111222' 
TCOON,ioos:station:TCOON:057:1,2010-04-08T12:00:00Z,28.4460,-96.3961,0.0,13.8,356.0,17.4,'11111222,11111222,11111222' 
TCOON,ioos:station:TCOON:057:1,2010-04-08T13:00:00Z,28.4460,-96.3961,0.0,13.8,348.0,17.5,'11111222,11111222,11111222' 
TCOON,ioos:station:TCOON:057:1,2010-04-08T14:00:00Z,28.4460,-96.3961,0.0,13.4,354.0,17.1,'11111222,11111222,11111222' 
TCOON,ioos:station:TCOON:057:1,2010-04-08T15:00:00Z,28.4460,-96.3961,0.0,14.2,358.0,16.9,'11111222,11111222,11111222' 
TCOON,ioos:station:TCOON:057:1,2010-04-08T16:00:00Z,28.4460,-96.3961,0.0,10.5,4.0,12.6,'11111222,11111222,11111222' 
TCOON,ioos:station:TCOON:057:1,2010-04-08T17:00:00Z,28.4460,-96.3961,0.0,8.4,2.0,10.0,'11111222,11111222,11111222' 
TCOON,ioos:station:TCOON:057:1,2010-04-08T18:00:00Z,28.4460,-96.3961,0.0,9.0,355.0,10.3,'11111222,11111222,11111222' 
TCOON,ioos:station:TCOON:057:1,2010-04-08T19:00:00Z,28.4460,-96.3961,0.0,9.9,337.0,11.4,'11111222,11111222,11111222' 
TCOON,ioos:station:TCOON:057:1,2010-04-08T20:00:00Z,28.4460,-96.3961,0.0,7.4,344.0,8.8,'11111222,11111222,11111222' 
TCOON,ioos:station:TCOON:057:1,2010-04-08T21:00:00Z,28.4460,-96.3961,0.0,7.6,344.0,9.0,'11111222,11111222,11111222' 
TCOON,ioos:station:TCOON:057:1,2010-04-08T22:00:00Z,28.4460,-96.3961,0.0,7.7,342.0,9.4,'11111222,11111222,11111222' 
TCOON,ioos:station:TCOON:057:1,2010-04-09T00:00:00Z,28.4460,-96.3961,0.0,7.2,357.0,9.0,'11111222,11111222,11111222' 
TCOON,ioos:station:TCOON:057:1,2010-04-09T01:00:00Z,28.4460,-96.3961,0.0,8.0,360.0,9.0,'11111222,11144222,11111222' 
TCOON,ioos:station:TCOON:057:1,2010-04-09T02:00:00Z,28.4460,-96.3961,0.0,7.7,13.0,8.3,'11111222,11111222,11111222' 
TCOON,ioos:station:TCOON:057:1,2010-04-09T03:00:00Z,28.4460,-96.3961,0.0,6.6,15.0,7.6,'11111222,11111222,11111222' 
TCOON,ioos:station:TCOON:057:1,2010-04-09T04:00:00Z,28.4460,-96.3961,0.0,6.5,19.0,7.5,'11111222,11111222,11111222' 
TCOON,ioos:station:TCOON:057:1,2010-04-09T05:00:00Z,28.4460,-96.3961,0.0,6.2,23.0,6.8,'11111222,11111222,11111222' 
TCOON,ioos:station:TCOON:057:1,2010-04-09T06:00:00Z,28.4460,-96.3961,0.0,5.1,20.0,6.1,'11111222,11111222,11111222' 
TCOON,ioos:station:TCOON:057:1,2010-04-09T07:00:00Z,28.4460,-96.3961,0.0,5.4,33.0,5.9,'11111222,11111222,11111222' 
TCOON,ioos:station:TCOON:057:1,2010-04-09T08:00:00Z,28.4460,-96.3961,0.0,5.2,37.0,6.0,'11111222,11111222,11111222' 
TCOON,ioos:station:TCOON:057:1,2010-04-09T09:00:00Z,28.4460,-96.3961,0.0,5.6,52.0,6.3,'11111222,11111222,11111222' 
TCOON,ioos:station:TCOON:057:1,2010-04-09T10:00:00Z,28.4460,-96.3961,0.0,6.0,58.0,6.8,'11111222,11111222,11111222' 
TCOON,ioos:station:TCOON:057:1,2010-04-09T11:00:00Z,28.4460,-96.3961,0.0,5.3,55.0,5.8,'11111222,11111222,11111222' 
TCOON,ioos:station:TCOON:057:1,2010-04-09T12:00:00Z,28.4460,-96.3961,0.0,5.1,59.0,6.0,'11111222,11111222,11111222' 
TCOON,ioos:station:TCOON:057:1,2010-04-09T13:00:00Z,28.4460,-96.3961,0.0,5.3,48.0,6.2,'11111222,11111222,11111222' 
TCOON,ioos:station:TCOON:057:1,2010-04-09T14:00:00Z,28.4460,-96.3961,0.0,6.9,54.0,7.4,'11111222,11111222,11111222' 
TCOON,ioos:station:TCOON:057:1,2010-04-09T15:00:00Z,28.4460,-96.3961,0.0,5.7,59.0,6.7,'11111222,11111222,11111222' 
TCOON,ioos:station:TCOON:057:1,2010-04-09T16:00:00Z,28.4460,-96.3961,0.0,6.6,67.0,8.0,'11111222,11111222,11111222' 
TCOON,ioos:station:TCOON:057:1,2010-04-09T17:00:00Z,28.4460,-96.3961,0.0,6.2,80.0,7.0,'11111222,11111222,11111222' 
TCOON,ioos:station:TCOON:057:1,2010-04-09T20:00:00Z,28.4460,-96.3961,0.0,5.7,120.0,6.5,'11111222,11111222,11111222' 
TCOON,ioos:station:TCOON:057:1,2010-04-09T21:00:00Z,28.4460,-96.3961,0.0,6.1,113.0,7.9,'11111222,11111222,11111222' 
TCOON,ioos:station:TCOON:057:1,2010-04-09T22:00:00Z,28.4460,-96.3961,0.0,6.2,115.0,7.2,'11111222,11111222,11111222' 